Wind_Speed
18 18 16 16 14 15 18 17 12 11 9 11 10 11 11 7 9 8 6 5 7 9 11 13 14 14 14 15 18 21 21 21 20 20 20 20 19 18 19 17 16 14 12 10 10 9 8 7 7
19 18 15 15 13 17 16 13 10 11 13 11 11 13 8 5 9 8 8 7 10 12 13 15 15 16 18 19 19 21 23 24 24 23 22 21 21 20 20 19 18 17 15 13 13 13 11 10 9
20 18 15 14 13 18 16 12 10 13 11 12 11 13 10 8 8 10 11 14 12 15 18 19 20 20 21 23 24 24 25 25 27 26 26 23 23 23 23 21 20 20 18 17 16 16 14 12 11
18 16 15 16 16 19 16 11 12 14 12 12 12 15 11 8 11 12 16 17 16 20 23 24 25 25 26 26 28 30 30 28 28 29 29 28 26 26 25 24 23 22 22 20 20 19 17 15 13
28 19 17 17 18 20 18 14 14 14 12 11 15 18 11 11 14 16 17 19 20 22 26 28 29 30 31 31 31 32 34 35 31 31 31 31 30 28 28 27 26 25 24 23 23 22 21 19 15
22 19 17 19 20 21 15 14 14 15 12 12 15 23 14 12 17 20 19 23 23 25 28 29 29 31 31 32 33 32 34 36 37 34 34 33 33 31 30 29 28 28 26 26 25 25 24 21 16
18 18 20 22 21 21 17 14 14 14 15 14 17 24 15 16 21 22 23 26 28 29 28 30 30 32 33 37 33 36 36 37 39 38 37 37 35 36 33 31 30 29 28 27 27 28 27 22 19
18 18 22 24 24 21 16 13 14 14 16 16 18 21 18 19 24 23 28 30 33 34 36 35 35 35 36 38 38 38 38 38 39 40 38 39 38 38 37 35 32 31 30 29 29 30 29 25 21
17 22 25 24 20 17 15 13 13 16 17 16 16 21 20 25 27 27 30 34 36 38 40 40 39 38 39 39 41 41 41 40 38 37 40 42 40 41 40 39 36 34 33 32 31 31 29 27 23
20 21 20 18 17 18 12 14 14 15 16 16 16 21 22 26 28 32 33 34 38 41 43 44 42 41 41 42 43 43 43 40 40 43 37 40 43 42 42 42 40 38 35 34 32 32 29 28 24
16 19 16 18 17 16 14 16 16 13 15 16 18 20 23 28 29 33 37 35 36 41 45 45 45 45 45 44 43 45 44 39 40 43 48 38 36 48 49 46 43 41 38 37 36 32 30 29 25
18 18 17 18 17 18 18 18 17 15 18 17 21 22 22 26 29 30 37 41 40 38 43 47 49 49 48 48 45 44 44 41 38 40 47 48 45 32 51 46 46 46 40 40 36 33 30 29 25
17 17 18 18 19 21 18 18 15 18 18 19 22 25 26 27 31 33 35 37 41 43 44 44 47 50 50 48 48 46 45 44 47 47 40 46 51 23 34 43 47 47 48 45 39 36 34 32 24
17 18 19 20 21 20 20 19 17 22 20 21 21 25 28 29 31 35 37 38 41 44 48 48 47 48 50 49 48 48 46 44 48 53 54 35 49 61 23 27 31 52 47 49 43 40 36 32 25
17 16 20 21 20 20 22 20 21 21 21 23 23 25 28 30 32 34 35 38 43 48 49 47 43 41 44 47 47 47 48 47 50 50 49 54 35 47 47 24 40 34 45 35 46 41 37 33 28
18 18 21 24 23 22 24 19 22 22 23 26 26 27 27 30 30 30 34 40 44 43 41 42 44 46 45 46 47 45 48 45 47 51 49 44 45 38 55 49 36 31 41 44 37 39 35 34 31
21 21 22 24 24 23 24 19 25 23 24 25 26 26 29 31 31 33 37 44 48 43 42 44 48 49 44 44 46 46 44 47 44 44 45 47 39 34 31 38 43 26 20 28 40 33 34 34 33
23 20 21 24 25 24 20 19 23 27 27 22 23 26 29 30 32 35 41 48 43 41 43 44 39 42 44 35 41 42 43 43 42 41 39 41 35 31 27 23 41 45 37 14 31 37 35 35 35
24 23 23 24 27 27 21 17 20 25 26 22 22 23 26 29 30 34 41 43 38 36 37 32 31 33 25 26 34 35 35 37 37 34 33 36 31 25 26 21 27 41 28 27 22 19 19 40 36
23 24 25 24 26 29 26 22 23 23 24 22 21 21 22 26 28 33 41 37 33 32 30 26 26 13 7 18 24 29 34 33 33 30 28 32 28 29 26 19 21 26 32 48 22 17 20 14 40
24 25 26 26 27 27 30 21 22 23 22 21 21 19 22 24 27 33 39 33 28 27 24 22 16 4 2 10 16 21 25 27 27 25 28 29 26 24 23 21 21 22 20 19 16 16 19 19 28
25 27 27 27 29 24 29 26 17 22 14 21 20 18 21 21 26 32 36 31 23 22 19 17 14 3 4 6 11 17 20 22 24 22 25 27 25 24 23 22 21 20 19 20 20 19 18 28 31
26 27 26 28 30 25 21 32 10 17 16 18 16 16 18 20 24 28 33 28 19 18 15 13 10 7 1 5 9 17 20 21 22 22 25 26 27 26 25 24 19 19 23 27 28 24 17 27 38
28 28 27 29 31 25 24 29 14 14 14 17 16 15 15 18 21 26 30 24 17 17 12 11 9 4 2 4 10 14 14 16 21 23 28 29 29 29 31 31 32 24 27 25 30 32 39 31 33
31 28 30 32 32 27 27 27 18 16 16 14 14 13 13 17 19 24 26 22 17 15 11 8 5 4 1 4 7 9 13 17 23 25 28 30 32 34 37 28 28 31 31 30 29 29 33 39 39
34 34 33 34 33 29 26 26 22 18 19 13 12 12 13 15 18 21 23 21 17 14 9 8 7 3 5 4 6 9 13 17 21 22 28 34 33 38 38 36 36 26 31 36 34 36 33 37 40
38 39 30 39 36 33 26 25 21 20 18 13 13 12 13 15 17 19 20 20 18 12 8 5 5 10 8 7 7 7 16 14 16 16 25 30 35 41 44 36 26 27 27 25 31 29 23 27 32
44 39 38 41 37 34 27 27 22 20 17 13 12 11 11 15 15 16 18 19 17 14 8 6 6 8 7 7 8 10 6 4 5 13 24 30 35 40 31 31 28 26 30 27 28 27 20 24 30
44 41 41 41 41 35 30 29 21 16 15 15 14 11 11 13 14 13 15 17 17 15 9 4 3 6 6 5 4 4 13 11 11 11 16 25 18 27 35 38 32 33 27 30 24 21 20 18 20
46 50 45 50 43 37 36 30 21 18 15 15 15 11 11 13 13 12 11 13 15 14 10 7 5 5 7 6 6 6 11 10 10 10 11 20 15 19 28 28 29 25 23 23 21 15 17 18 23
Wind_Direction
256 254 248 248 243 237 234 237 220 217 201 208 222 233 233 234 254 274 280 267 273 278 283 287 289 287 282 277 273 273 272 271 272 274 267 262 251 244 246 244 243 241 242 251 252 244 252 256 268
256 251 246 240 228 228 232 227 206 207 208 216 224 241 242 238 252 262 266 269 286 290 291 291 290 291 290 284 276 272 270 269 269 268 269 264 258 248 239 239 241 243 244 247 245 241 245 252 266
251 246 236 230 217 235 233 204 199 218 223 229 231 243 235 223 254 268 280 286 292 292 290 290 289 289 288 289 286 277 271 267 263 264 263 263 260 253 248 239 238 244 245 245 245 238 241 251 258
257 240 225 226 224 233 231 199 208 227 223 241 247 244 242 248 262 270 279 283 291 294 295 297 298 297 293 289 286 284 278 265 263 257 258 256 256 254 248 245 239 239 244 246 246 239 239 243 250
257 239 226 225 232 235 223 200 220 233 229 234 251 244 244 272 270 273 280 283 287 294 294 294 294 297 296 294 290 284 278 274 260 257 251 252 251 251 250 245 244 241 241 243 244 241 239 241 245
240 235 232 234 239 243 223 217 215 235 236 236 251 252 239 257 282 280 290 286 286 291 292 291 294 295 295 297 293 289 277 271 266 254 250 245 247 246 248 245 244 242 239 239 240 239 238 238 241
245 242 241 241 243 237 229 221 225 237 239 241 247 251 255 266 267 279 284 287 284 288 293 296 294 300 292 300 290 292 282 270 264 257 248 245 241 242 243 244 242 241 240 238 238 237 237 235 235
264 259 256 248 241 232 226 227 226 240 249 248 256 260 266 274 275 282 284 286 290 292 295 293 293 294 292 295 293 292 283 272 263 257 250 246 240 239 238 239 239 238 238 238 238 238 237 233 230
262 262 257 250 234 238 228 232 240 249 256 256 267 269 278 278 277 282 285 289 291 292 292 293 292 292 290 291 290 288 282 272 259 252 249 243 240 236 236 236 236 235 236 235 236 238 235 234 226
249 250 246 240 234 236 219 240 246 250 267 270 275 277 282 281 285 284 287 291 293 291 290 291 292 291 286 287 285 280 275 264 256 248 241 242 241 241 237 236 234 235 235 235 234 235 236 233 227
247 244 236 236 238 237 237 239 253 258 270 278 281 283 284 288 290 293 292 293 292 292 291 291 292 290 285 277 269 271 267 263 258 249 239 228 241 238 235 234 233 232 233 233 232 232 233 232 226
254 251 247 241 238 242 244 250 258 268 273 281 284 286 286 291 295 298 298 297 293 290 292 293 291 287 281 276 269 264 260 250 246 250 239 232 232 246 226 228 229 233 228 232 233 231 233 230 221
255 251 250 245 241 247 252 259 264 270 275 280 284 288 292 295 297 298 296 294 296 295 294 289 285 282 275 268 264 261 255 246 237 229 223 232 227 244 227 215 226 229 234 230 229 229 227 231 217
257 259 251 241 244 251 259 265 268 273 280 280 281 286 293 297 299 301 301 299 300 299 294 290 282 273 268 264 259 256 252 240 236 240 247 256 238 237 241 217 220 225 225 228 226 226 225 226 212
261 259 257 252 251 253 260 269 271 280 280 281 283 289 295 299 302 303 302 303 302 301 300 294 285 276 272 266 258 251 248 242 234 239 245 244 243 240 232 218 209 210 220 218 222 223 223 223 216
270 261 255 254 253 258 267 268 276 278 284 287 291 294 297 298 302 305 301 304 305 303 299 289 290 283 273 262 254 247 242 239 238 234 239 244 246 245 232 232 197 192 216 218 210 216 219 220 218
261 260 261 262 265 264 265 269 275 280 283 285 292 297 302 307 309 306 310 310 313 314 309 304 299 291 277 259 247 239 236 235 235 236 239 246 252 260 254 252 213 200 207 208 210 207 215 218 220
268 265 268 272 270 269 264 272 280 286 287 290 295 301 304 310 310 316 319 318 319 318 315 311 303 293 281 251 239 233 229 230 231 236 237 240 240 247 250 250 241 230 232 214 211 210 221 223 225
267 270 269 272 278 273 272 277 278 279 285 288 296 299 308 309 312 318 319 320 321 321 317 314 306 304 284 219 222 224 227 226 228 233 237 235 230 226 236 228 243 250 221 222 241 263 282 223 226
267 267 273 270 275 282 287 289 288 283 284 293 292 303 307 303 315 320 318 321 325 323 320 320 320 315 276 207 209 211 214 220 227 232 232 226 222 227 229 225 237 252 228 228 259 280 273 250 222
267 272 268 270 273 282 282 286 282 283 287 289 296 304 303 311 320 322 319 325 328 323 327 336 331 17 141 186 205 209 211 215 224 233 220 212 218 221 229 222 227 237 254 255 248 270 282 263 238
262 265 270 272 274 276 288 286 290 278 278 288 298 303 302 317 324 319 321 329 328 327 335 352 358 353 156 193 208 207 206 215 226 226 214 208 210 216 226 215 216 219 231 238 234 243 257 228 241
263 262 264 268 272 273 291 285 295 288 289 281 292 294 306 318 316 320 325 333 335 339 342 356 7 14 328 203 214 213 216 224 228 227 213 207 205 212 219 214 216 237 239 232 231 224 230 232 249
259 259 262 265 269 271 276 283 301 292 285 285 283 290 308 313 315 322 328 336 338 356 3 1 357 348 304 218 211 215 229 230 232 232 219 210 211 216 207 209 214 203 230 227 240 223 245 245 254
255 257 258 260 263 270 279 283 292 287 282 279 279 288 305 309 315 321 331 341 340 351 29 35 358 322 104 172 195 226 248 249 241 237 230 226 219 216 207 206 200 214 228 229 230 236 242 249 251
246 248 250 261 261 262 264 279 287 286 286 289 284 295 311 312 316 322 332 345 339 345 4 48 47 24 238 233 222 233 251 261 265 254 244 236 224 217 197 194 222 213 220 235 246 250 249 253 254
247 247 251 255 256 261 263 274 280 281 287 293 295 303 315 312 311 320 332 345 344 347 359 19 86 80 118 170 220 259 256 269 277 262 239 240 229 220 212 206 220 210 233 237 235 236 244 261 258
247 240 242 250 255 258 261 264 279 284 284 279 280 287 304 302 304 317 331 340 348 353 353 23 43 80 90 94 87 50 72 280 264 225 223 206 207 202 201 202 207 213 228 235 238 244 258 269 259
242 245 242 246 247 253 254 258 261 263 268 274 274 280 294 294 297 309 327 336 348 351 1 25 51 74 86 98 116 84 76 44 88 118 160 178 176 189 189 201 217 223 230 239 238 239 243 248 256
236 241 240 237 239 243 248 244 253 264 261 268 269 278 287 287 287 297 318 331 344 349 360 22 46 75 88 94 106 114 111 77 61 79 149 176 181 181 201 213 217 225 229 230 227 233 232 244 257
Height
5864 5865 5865 5868 5871 5870 5868 5869 5870 5873 5875 5875 5877 5876 5879 5880 5879 5882 5883 5884 5884 5884 5885 5885 5884 5885 5886 5886 5886 5888 5889 5889 5890 5891 5891 5892 5892 5893 5894 5895 5895 5895 5896 5896 5896 5896 5897 5898 5898
5860 5862 5862 5864 5867 5865 5865 5866 5868 5871 5872 5872 5873 5874 5877 5880 5879 5878 5880 5882 5882 5882 5883 5882 5882 5882 5882 5883 5883 5884 5885 5886 5887 5887 5889 5889 5890 5891 5891 5892 5893 5893 5893 5893 5894 5895 5895 5896 5896
5858 5859 5860 5861 5863 5861 5862 5865 5866 5867 5869 5870 5871 5871 5873 5876 5876 5875 5876 5876 5879 5878 5879 5879 5879 5879 5879 5879 5879 5879 5881 5881 5882 5883 5885 5885 5886 5887 5888 5888 5889 5891 5891 5891 5892 5892 5892 5893 5894
5855 5856 5857 5859 5859 5858 5858 5862 5862 5864 5866 5866 5867 5868 5870 5872 5873 5874 5873 5872 5874 5875 5874 5874 5873 5873 5874 5875 5875 5875 5874 5876 5877 5878 5879 5881 5882 5883 5884 5885 5886 5887 5888 5889 5889 5889 5890 5890 5891
5852 5852 5854 5855 5854 5853 5854 5858 5859 5860 5862 5863 5863 5864 5868 5868 5868 5869 5870 5869 5871 5871 5870 5869 5869 5869 5869 5869 5869 5870 5869 5868 5871 5872 5873 5875 5876 5878 5879 5881 5882 5883 5884 5885 5886 5887 5887 5888 5889
5847 5850 5851 5852 5850 5852 5853 5855 5856 5856 5857 5860 5861 5858 5864 5865 5864 5864 5865 5865 5867 5868 5866 5865 5864 5864 5863 5862 5862 5862 5863 5863 5863 5865 5867 5868 5870 5872 5874 5875 5877 5878 5879 5880 5882 5883 5883 5886 5888
5844 5847 5847 5848 5847 5848 5850 5852 5851 5852 5854 5857 5857 5852 5860 5861 5860 5860 5860 5860 5861 5863 5863 5861 5858 5859 5857 5856 5855 5855 5855 5855 5855 5856 5859 5861 5863 5866 5868 5870 5872 5873 5875 5876 5877 5878 5879 5883 5885
5841 5843 5843 5843 5844 5845 5849 5848 5847 5849 5851 5853 5851 5848 5854 5855 5854 5856 5854 5855 5856 5855 5855 5855 5852 5852 5851 5850 5848 5848 5848 5848 5848 5848 5851 5853 5856 5858 5861 5863 5865 5867 5869 5871 5872 5873 5875 5879 5882
5838 5839 5838 5841 5843 5844 5846 5844 5845 5846 5848 5849 5847 5844 5848 5847 5849 5850 5850 5847 5849 5847 5846 5845 5845 5843 5842 5841 5840 5839 5839 5839 5840 5841 5841 5843 5847 5849 5853 5856 5858 5860 5863 5866 5868 5869 5872 5874 5879
5835 5834 5835 5839 5841 5841 5840 5840 5843 5844 5843 5842 5841 5840 5842 5842 5843 5842 5843 5843 5841 5838 5837 5834 5835 5834 5831 5831 5829 5829 5829 5831 5831 5831 5833 5835 5840 5843 5847 5849 5852 5854 5857 5860 5863 5865 5868 5870 5875
5830 5830 5831 5834 5836 5836 5837 5838 5839 5838 5838 5837 5836 5837 5837 5835 5836 5835 5834 5836 5833 5828 5825 5824 5822 5822 5821 5819 5820 5819 5817 5821 5820 5822 5824 5828 5830 5831 5836 5840 5844 5847 5850 5852 5856 5861 5863 5866 5872
5827 5825 5827 5829 5831 5832 5834 5835 5834 5833 5832 5832 5830 5830 5832 5830 5829 5829 5824 5822 5823 5822 5816 5811 5809 5807 5806 5805 5805 5806 5807 5813 5815 5812 5812 5820 5819 5819 5820 5828 5835 5840 5842 5845 5852 5856 5860 5861 5867
5823 5824 5824 5825 5827 5828 5830 5830 5829 5827 5826 5826 5825 5824 5824 5824 5822 5821 5820 5816 5811 5808 5805 5802 5796 5792 5791 5791 5791 5793 5793 5800 5802 5800 5797 5807 5809 5810 5813 5816 5824 5830 5834 5838 5844 5849 5854 5856 5863
5819 5819 5820 5822 5822 5824 5825 5825 5824 5820 5820 5820 5821 5819 5817 5817 5815 5812 5809 5805 5801 5796 5790 5786 5783 5779 5775 5776 5778 5780 5781 5787 5789 5789 5791 5795 5798 5801 5808 5810 5814 5818 5825 5828 5835 5840 5847 5851 5859
5815 5816 5816 5816 5817 5819 5820 5820 5818 5817 5815 5814 5815 5813 5811 5809 5808 5805 5800 5795 5789 5782 5774 5769 5768 5766 5762 5761 5763 5767 5767 5773 5778 5781 5784 5787 5789 5793 5802 5805 5809 5812 5817 5821 5827 5834 5840 5845 5852
5810 5811 5812 5811 5812 5814 5814 5815 5812 5811 5810 5808 5807 5806 5805 5804 5802 5798 5792 5785 5779 5772 5764 5754 5750 5750 5747 5745 5747 5752 5757 5762 5766 5773 5774 5779 5784 5787 5792 5797 5803 5805 5811 5814 5820 5828 5834 5840 5846
5805 5806 5807 5807 5807 5808 5808 5809 5804 5805 5804 5804 5802 5800 5797 5794 5792 5787 5781 5774 5766 5758 5751 5745 5735 5724 5727 5727 5731 5737 5745 5751 5756 5764 5768 5771 5777 5780 5785 5787 5794 5796 5804 5808 5814 5821 5827 5833 5839
5801 5802 5801 5800 5801 5801 5802 5803 5800 5797 5796 5797 5795 5793 5790 5788 5781 5776 5768 5760 5754 5747 5739 5732 5723 5712 5706 5710 5717 5725 5734 5741 5748 5756 5763 5766 5773 5777 5781 5783 5787 5790 5798 5803 5810 5816 5822 5827 5831
5796 5796 5797 5795 5792 5793 5796 5797 5795 5792 5791 5790 5790 5788 5785 5780 5775 5770 5762 5755 5748 5739 5732 5723 5713 5703 5695 5698 5707 5717 5726 5736 5742 5749 5754 5760 5768 5773 5777 5781 5784 5785 5795 5801 5806 5811 5815 5820 5824
5791 5791 5790 5790 5788 5786 5788 5790 5788 5786 5785 5785 5784 5783 5779 5775 5770 5765 5757 5750 5742 5735 5728 5718 5709 5702 5698 5698 5704 5711 5720 5729 5736 5743 5749 5754 5761 5770 5772 5775 5780 5782 5788 5796 5801 5805 5810 5815 5820
5784 5785 5784 5785 5782 5783 5780 5785 5782 5781 5779 5778 5778 5777 5773 5769 5764 5759 5752 5744 5737 5732 5725 5715 5708 5703 5703 5705 5709 5714 5720 5727 5731 5737 5743 5750 5756 5762 5767 5771 5775 5778 5784 5791 5797 5801 5805 5809 5813
5777 5776 5778 5778 5777 5778 5775 5775 5778 5774 5776 5772 5772 5771 5767 5763 5759 5754 5747 5740 5735 5729 5722 5714 5710 5707 5707 5709 5712 5717 5721 5725 5729 5734 5739 5745 5751 5758 5762 5767 5771 5775 5782 5789 5793 5797 5800 5803 5804
5773 5770 5771 5771 5771 5773 5774 5765 5776 5771 5771 5769 5768 5766 5762 5759 5756 5751 5743 5737 5732 5726 5720 5715 5711 5710 5710 5711 5714 5717 5720 5724 5727 5731 5735 5740 5747 5752 5757 5762 5767 5770 5778 5785 5788 5791 5794 5797 5799
5764 5765 5764 5763 5764 5769 5767 5763 5770 5767 5767 5765 5764 5761 5758 5756 5753 5747 5740 5734 5730 5725 5720 5715 5712 5711 5710 5712 5715 5718 5721 5723 5725 5727 5731 5735 5741 5746 5750 5755 5760 5764 5772 5777 5782 5784 5791 5793 5794
5756 5757 5757 5756 5757 5762 5762 5760 5763 5762 5762 5762 5760 5756 5754 5752 5749 5744 5738 5732 5728 5725 5722 5715 5712 5711 5711 5712 5714 5717 5719 5721 5722 5725 5728 5732 5735 5739 5744 5749 5754 5762 5768 5773 5777 5782 5783 5786 5789
5746 5747 5750 5748 5750 5755 5758 5757 5756 5756 5755 5756 5755 5751 5749 5747 5745 5742 5736 5731 5727 5724 5722 5718 5713 5711 5711 5712 5713 5714 5714 5715 5717 5720 5722 5725 5730 5734 5739 5744 5751 5757 5763 5769 5772 5775 5777 5781 5783
5737 5737 5746 5739 5743 5745 5752 5752 5753 5750 5749 5750 5748 5746 5744 5744 5742 5740 5735 5730 5727 5723 5722 5719 5716 5714 5710 5711 5712 5713 5711 5710 5709 5708 5711 5716 5723 5730 5734 5739 5746 5753 5758 5763 5767 5770 5773 5777 5779
5723 5730 5731 5732 5736 5738 5744 5744 5748 5746 5745 5745 5745 5743 5741 5741 5740 5737 5733 5729 5726 5723 5721 5719 5716 5714 5713 5713 5712 5710 5707 5707 5707 5705 5708 5715 5721 5725 5731 5738 5744 5750 5755 5758 5762 5764 5768 5770 5773
5716 5719 5723 5724 5726 5731 5736 5738 5743 5745 5743 5741 5741 5740 5738 5738 5737 5735 5732 5728 5725 5723 5721 5719 5717 5716 5715 5714 5714 5712 5709 5709 5708 5707 5709 5715 5720 5725 5729 5736 5741 5746 5750 5753 5756 5760 5763 5767 5769
5706 5707 5710 5710 5718 5723 5725 5731 5737 5738 5739 5739 5738 5736 5735 5735 5734 5733 5731 5728 5725 5723 5722 5720 5718 5716 5715 5715 5714 5713 5712 5712 5711 5711 5712 5716 5721 5725 5731 5736 5740 5744 5747 5749 5753 5756 5757 5761 5764